[[{"header":{"parameterUnit":"m.s-1","parameterCategory":1,"la1":30.2991,"la2":30.254,"lo1":-89.0895,"lo2":-89.0444,"dy":0.0017,"dx":0.0017,"nx":28,"ny":28,"refTime":"2025-04-23T21:00:00:Z","depth":0,"parameterNumber":2,"parameterNumberName":"U-component_of_WINDS"},"data":[0,0,0,0,0,0,0,0,0,0,0,0,0,0,0,0,0,0,0,0,0,0,0,0,0,0,0,0,0,0,0,0,0,0,0,0,0,0,0,0,0,0,0,0,0,0,0,0,0,0,0,0,0,0,0,0,0,0,-1.8873,-1.8873,0,-1.8857,-1.8857,-1.8856,-1.8824,-1.8824,-1.8823,-1.8822,-1.8806,-1.8806,-1.8806,0,0,0,0,0,0,0,0,0,0,0,0,0,-1.8877,-1.8877,-1.8873,-1.8873,-1.8873,-1.8857,-1.8857,-1.8856,-1.8824,-1.8824,-1.8823,-1.8822,-1.8805,-1.8806,-1.8806,0,0,0,0,0,0,0,0,0,0,0,0,0,-1.8869,-1.8877,-1.8873,-1.8855,-1.8853,-1.8857,-1.8857,-1.8856,-1.8825,-1.8824,-1.8823,-1.8822,-1.8805,-1.8806,-1.8806,-1.8826,0,0,-1.8806,-1.8807,0,0,0,0,0,0,0,0,-1.887,-1.8869,-1.8858,-1.8856,-1.8854,-1.8842,-1.8852,-1.8846,-1.8825,-1.8835,-1.8822,-1.8821,-1.8818,-1.8817,-1.8816,-1.8825,-1.8825,-1.8807,-1.8807,-1.8807,-1.8807,0,0,0,0,0,0,0,-1.887,-1.887,-1.8867,-1.8857,-1.8855,-1.8847,-1.8845,-1.885,-1.8832,-1.8834,-1.8832,-1.8831,-1.8817,-1.8816,-1.8816,-1.8824,-1.8807,-1.8807,-1.8807,-1.8807,-1.885,-1.8851,0,0,0,0,0,0,-1.8873,-1.887,-1.8867,-1.8866,-1.886,-1.8848,-1.8846,-1.8847,-1.8832,-1.8829,-1.8831,-1.8829,-1.8816,-1.8816,-1.8815,-1.8838,-1.8807,-1.8807,-1.8807,-1.8849,-1.885,-1.8851,0,0,0,0,0,0,-1.8874,-1.8873,-1.8868,-1.8868,-1.8866,-1.8849,-1.885,-1.8847,-1.8846,-1.883,-1.8827,-1.8834,-1.8816,-1.8815,-1.8824,-1.8837,-1.8807,-1.8807,-1.8847,-1.8849,-1.885,-1.8883,0,0,0,0,0,0,-1.8874,-1.8874,-1.8881,-1.8868,-1.8866,-1.8877,-1.8851,-1.8847,-1.8846,-1.8843,-1.8831,-1.8828,-1.8815,-1.8824,-1.8824,-1.8836,-1.8807,-1.8846,-1.8848,-1.885,-1.8881,-1.8886,-1.889,0,0,0,0,0,-1.8874,-1.8891,-1.8881,-1.8881,-1.8875,-1.8877,-1.8876,-1.886,-1.8847,-1.8855,-1.8845,-1.8829,-1.8836,-1.8825,-1.8825,-1.8838,-1.8845,-1.8848,-1.885,-1.8879,-1.8885,-1.889,0,0,0,0,0,0,-1.8905,-1.8889,-1.8878,-1.8891,-1.8886,-1.8872,-1.888,-1.8867,-1.8865,-1.8862,-1.8843,-1.8841,-1.8852,-1.8846,-1.8834,-1.8857,-1.8838,-1.884,-1.886,-1.8865,-1.887,-1.887,-1.8808,0,0,0,0,0,-1.8914,-1.8917,-1.8902,-1.8915,-1.8913,-1.8898,-1.8898,-1.8886,-1.888,-1.8877,-1.8868,-1.8863,-1.8863,-1.8864,-1.8864,-1.8881,-1.8877,-1.8889,-1.8894,-1.8898,-1.8899,-1.8908,-1.8913,-1.8858,-1.8858,-1.8858,0,0,-1.8931,-1.8922,-1.8925,-1.8921,-1.8916,-1.8919,-1.8896,-1.8901,-1.8903,-1.8878,-1.8886,-1.8879,-1.8872,-1.8885,-1.889,-1.888,-1.8914,-1.8901,-1.8904,-1.8903,-1.8911,-1.8916,-1.892,-1.886,-1.886,-1.8859,0,0,-1.8964,-1.8958,-1.8968,-1.8964,-1.8956,-1.8946,-1.8948,-1.8937,-1.8931,-1.8939,-1.892,-1.8923,-1.8925,-1.8921,-1.8919,-1.8952,-1.8937,-1.8953,-1.8975,-1.8984,-1.8988,-1.8992,-1.9003,-1.9007,-1.8955,-1.8955,-1.8955,0,-1.8986,-1.8991,-1.8975,-1.8981,-1.898,-1.8958,-1.8968,-1.8965,-1.8957,-1.8957,-1.8946,-1.8949,-1.8942,-1.8954,-1.8962,-1.8961,-1.8964,-1.8953,-1.8989,-1.8992,-1.8995,-1.9006,-1.901,-1.8957,-1.8957,-1.8957,-1.8956,0,-1.9019,-1.9023,-1.9032,-1.9026,-1.9026,-1.9034,-1.9019,-1.9021,-1.901,-1.9001,-1.9009,-1.9001,-1.8999,-1.9001,-1.899,-1.9011,-1.9005,-1.8992,-1.8972,-1.9003,-1.9012,-1.9016,-1.896,-1.8959,-1.8958,-1.8958,0,0,-1.907,-1.9055,-1.9059,-1.9056,-1.9046,-1.9049,-1.9057,-1.9055,-1.9057,-1.9053,-1.9059,-1.9062,-1.905,-1.9048,-1.9036,-1.9044,-1.907,-1.9029,-1.9029,-1.9037,-1.9093,-1.9102,-1.9107,-1.9061,-1.9062,-1.9062,-1.9093,0,-1.91,-1.9111,-1.9098,-1.9112,-1.9116,-1.9096,-1.9103,-1.9098,-1.909,-1.9092,-1.9083,-1.9086,-1.907,-1.9068,-1.9075,-1.9066,-1.9081,-1.9063,-1.9066,-1.9066,-1.9067,-1.9112,-1.9122,-1.9151,-1.9097,-1.9097,-1.9098,0,-1.9136,-1.9134,-1.915,-1.914,-1.9141,-1.9147,-1.9144,-1.9147,-1.9141,-1.9135,-1.9133,-1.912,-1.9127,-1.9109,-1.9119,-1.9107,-1.9108,-1.9104,-1.9104,-1.9103,-1.9083,-1.9111,-1.916,-1.9164,-1.9104,-1.9103,-1.9103,0,-1.9171,-1.9172,-1.9182,-1.918,-1.9169,-1.9174,-1.9169,-1.9163,-1.9163,-1.9161,-1.9161,-1.9161,-1.916,-1.916,-1.9147,-1.9135,-1.9158,-1.9139,-1.9153,-1.9153,-1.9157,-1.9157,-1.9206,-1.9159,-1.9159,-1.9159,-1.9159,0,-1.9205,-1.9215,-1.9197,-1.9203,-1.9213,-1.9198,-1.9209,-1.9203,-1.9197,-1.9201,-1.9185,-1.9189,-1.9172,-1.9175,-1.9165,-1.9174,-1.9174,-1.9169,-1.9166,-1.917,-1.9171,-1.9169,-1.9166,-1.916,-1.916,-1.916,-1.916,0,-1.9245,-1.9233,-1.9242,-1.9231,-1.9229,-1.9237,-1.9228,-1.9233,-1.9225,-1.923,-1.9231,-1.9218,-1.922,-1.9208,-1.9208,-1.9201,-1.9215,-1.9209,-1.9217,-1.9214,-1.9229,-1.9227,-1.9277,-1.9283,-1.9234,-1.9235,-1.9235,0,-1.9267,-1.9274,-1.9265,-1.9266,-1.9263,-1.9266,-1.9266,-1.9252,-1.9253,-1.9248,-1.9253,-1.9254,-1.9254,-1.9259,-1.925,-1.925,-1.9243,-1.9261,-1.9243,-1.9247,-1.9243,-1.9242,-1.9242,-1.9264,-1.9265,-1.9265,-1.9266,0,-1.9308,-1.9302,-1.9303,-1.9302,-1.9303,-1.9302,-1.9299,-1.9302,-1.9286,-1.9288,-1.929,-1.929,-1.9291,-1.9292,-1.9291,-1.9286,-1.9273,-1.9272,-1.9275,-1.9278,-1.9282,-1.9279,-1.9226,-1.927,-1.927,-1.9269,-1.9269,-1.9269,-1.9339,-1.9344,-1.9339,-1.934,-1.9337,-1.9336,-1.934,-1.9332,-1.9334,-1.9333,-1.9325,-1.9329,-1.9324,-1.9321,-1.9318,-1.9321,-1.9312,-1.9317,-1.9318,-1.9319,-1.9321,-1.9282,-1.932,-1.932,-1.932,-1.932,-1.932,0,-1.9378,-1.9374,-1.9375,-1.9373,-1.9374,-1.9363,-1.936,-1.9362,-1.9365,-1.9362,-1.9363,-1.9366,-1.9367,-1.9358,-1.9359,-1.9363,-1.9357,-1.9363,-1.9362,-1.9361,-1.9329,-1.9326,-1.9368,-1.9368,-1.9368,-1.9368,-1.9368,-1.9368,-1.9398,-1.9407,-1.9401,-1.9408,-1.9403,-1.9407,-1.9406,-1.9405,-1.9402,-1.9406,-1.9407,-1.9402,-1.9396,-1.9396,-1.9397,-1.9395,-1.9395,-1.9404,-1.9399,-1.9368,-1.9364,-1.9359,-1.9356,-1.9404,-1.9404,-1.9431,-1.9431,-1.9432]},{"header":{"parameterUnit":"m.s-1","parameterCategory":1,"la1":30.2991,"la2":30.254,"lo1":-89.0895,"lo2":-89.0444,"dy":0.0017,"dx":0.0017,"nx":28,"ny":28,"refTime":"2025-04-23T21:00:00:Z","depth":0,"parameterNumber":3,"parameterNumberName":"V-component_of_WINDS"},"data":[0,0,0,0,0,0,0,0,0,0,0,0,0,0,0,0,0,0,0,0,0,0,0,0,0,0,0,0,0,0,0,0,0,0,0,0,0,0,0,0,0,0,0,0,0,0,0,0,0,0,0,0,0,0,0,0,0,0,4.1236,4.1236,0,4.1294,4.1295,4.1296,4.1353,4.1353,4.1354,4.1355,4.1409,4.141,4.1411,0,0,0,0,0,0,0,0,0,0,0,0,0,4.1171,4.1172,4.1236,4.1236,4.1237,4.1294,4.1295,4.1296,4.1352,4.1353,4.1354,4.1355,4.1409,4.141,4.1411,0,0,0,0,0,0,0,0,0,0,0,0,0,4.1211,4.1172,4.1235,4.1272,4.1276,4.1294,4.1295,4.1296,4.1352,4.1353,4.1354,4.1355,4.1409,4.141,4.1411,4.1395,0,0,4.1415,4.1415,0,0,0,0,0,0,0,0,4.1209,4.1213,4.1266,4.127,4.1274,4.1317,4.1292,4.1329,4.1352,4.1323,4.1355,4.1356,4.1378,4.1381,4.139,4.1398,4.14,4.1415,4.1415,4.1416,4.1416,0,0,0,0,0,0,0,4.1206,4.1211,4.1259,4.1267,4.1272,4.1285,4.1292,4.13,4.1343,4.1326,4.133,4.1337,4.138,4.1388,4.1391,4.1401,4.1415,4.1416,4.1416,4.1417,4.1404,4.1403,0,0,0,0,0,0,4.1198,4.1209,4.1257,4.126,4.1244,4.1286,4.1293,4.1302,4.1343,4.1351,4.1335,4.1339,4.1386,4.139,4.1393,4.1381,4.1416,4.1417,4.1418,4.1405,4.1404,4.1403,0,0,0,0,0,0,4.1196,4.1202,4.1254,4.1236,4.1244,4.1286,4.1295,4.1303,4.1311,4.1351,4.1358,4.1336,4.1387,4.1392,4.1396,4.1383,4.1417,4.1418,4.1406,4.1405,4.1403,4.1353,0,0,0,0,0,0,4.1194,4.1201,4.1195,4.1235,4.1244,4.1256,4.1294,4.1303,4.1314,4.1319,4.1353,4.136,4.1388,4.1394,4.1397,4.1386,4.1419,4.1408,4.1406,4.1404,4.1356,4.135,4.1345,0,0,0,0,0,4.1192,4.1177,4.1195,4.12,4.1239,4.1255,4.126,4.1294,4.1313,4.1308,4.1334,4.1359,4.1384,4.1394,4.1398,4.1386,4.1409,4.1406,4.1404,4.1359,4.1351,4.1345,0,0,0,0,0,0,4.1131,4.1182,4.1203,4.1201,4.1224,4.1265,4.1259,4.1285,4.1302,4.1305,4.1346,4.1353,4.1353,4.137,4.138,4.1376,4.14,4.1399,4.1364,4.1358,4.1352,4.1348,4.142,0,0,0,0,0,4.1118,4.1129,4.1172,4.1166,4.1177,4.1216,4.1224,4.125,4.1274,4.1283,4.1309,4.1331,4.1345,4.1352,4.1366,4.1359,4.1369,4.1354,4.1348,4.1343,4.1341,4.1343,4.1337,4.1395,4.1395,4.1395,0,0,4.109,4.1119,4.1123,4.1155,4.1175,4.1185,4.1224,4.1231,4.1239,4.1284,4.1291,4.1311,4.1338,4.1338,4.1338,4.1352,4.1328,4.1341,4.1336,4.1337,4.134,4.1334,4.1329,4.1394,4.1394,4.1394,0,0,4.1044,4.1067,4.1066,4.1087,4.1119,4.1147,4.1146,4.1185,4.1201,4.1209,4.1244,4.1254,4.1275,4.1294,4.1306,4.1273,4.1298,4.1277,4.1247,4.1248,4.1243,4.1239,4.123,4.1225,4.1275,4.1274,4.1274,0,4.1005,4.1022,4.1062,4.1069,4.1083,4.1127,4.1127,4.1145,4.1179,4.1188,4.1203,4.1234,4.1255,4.1261,4.1254,4.1262,4.1264,4.1272,4.1241,4.1237,4.1234,4.1226,4.1222,4.1272,4.1272,4.1272,4.1273,0,4.0973,4.0985,4.098,4.1016,4.1029,4.1032,4.1073,4.1082,4.1106,4.1132,4.1141,4.1169,4.1191,4.1194,4.1217,4.1205,4.1213,4.1234,4.1259,4.1226,4.1218,4.1215,4.1268,4.1269,4.127,4.127,0,0,4.0888,4.095,4.0947,4.0966,4.1006,4.1016,4.1022,4.1047,4.1055,4.1077,4.1084,4.1104,4.1125,4.1139,4.1165,4.1165,4.1141,4.1187,4.1188,4.1179,4.1132,4.1117,4.1112,4.1158,4.1157,4.1157,4.1131,0,4.085,4.0866,4.0904,4.0908,4.0921,4.0965,4.0971,4.0997,4.1022,4.1036,4.1063,4.1077,4.1103,4.1113,4.1115,4.1143,4.1132,4.1145,4.1165,4.1165,4.1158,4.1108,4.1091,4.1064,4.1128,4.1127,4.1127,0,4.0808,4.0832,4.0838,4.0882,4.0889,4.0893,4.0921,4.0934,4.0965,4.0983,4.1002,4.1032,4.1042,4.1066,4.1081,4.1089,4.11,4.1115,4.1115,4.1118,4.1144,4.1111,4.1057,4.1053,4.1122,4.1123,4.1123,0,4.0748,4.0781,4.079,4.0804,4.0855,4.0858,4.088,4.0912,4.0926,4.095,4.0959,4.0983,4.0996,4.1014,4.1049,4.1063,4.1061,4.1088,4.1077,4.1077,4.1074,4.1074,4.1022,4.108,4.108,4.108,4.108,0,4.0702,4.0704,4.0765,4.077,4.0775,4.0819,4.0822,4.0848,4.0877,4.0888,4.0927,4.0937,4.0984,4.0999,4.1027,4.1037,4.1041,4.1057,4.1064,4.1054,4.1052,4.1061,4.1065,4.1079,4.1079,4.1079,4.1079,0,4.0635,4.0676,4.0689,4.0738,4.0751,4.0752,4.0794,4.0801,4.0831,4.0845,4.0851,4.0896,4.0916,4.0954,4.0984,4.1003,4.1007,4.102,4.0998,4.1002,4.0991,4.0992,4.0943,4.094,4.0998,4.0998,4.0997,0,4.0603,4.0607,4.0658,4.067,4.0691,4.0708,4.0724,4.0768,4.0783,4.0821,4.0824,4.0849,4.087,4.0901,4.0936,4.096,4.0974,4.0956,4.0978,4.0969,4.0976,4.0976,4.0978,4.095,4.095,4.0949,4.0948,0,4.0544,4.0565,4.0587,4.0617,4.0635,4.066,4.0686,4.0694,4.0744,4.0759,4.0782,4.0799,4.0833,4.0857,4.0887,4.0908,4.0937,4.0942,4.0941,4.093,4.0918,4.0927,4.0985,4.0942,4.0943,4.0943,4.0943,4.0944,4.0495,4.0502,4.054,4.0564,4.059,4.0615,4.0626,4.0658,4.0679,4.0711,4.0736,4.0758,4.0792,4.0836,4.0857,4.0874,4.0887,4.0886,4.0885,4.0885,4.0881,4.0915,4.088,4.088,4.088,4.088,4.088,0,4.0439,4.0467,4.0489,4.0528,4.0547,4.0575,4.0607,4.0621,4.0641,4.0671,4.0694,4.0722,4.0747,4.0785,4.0813,4.082,4.0834,4.0826,4.0826,4.0831,4.0867,4.0866,4.0815,4.0815,4.0815,4.0815,4.0815,4.0815,4.0412,4.0427,4.0453,4.0481,4.0509,4.0532,4.0549,4.0573,4.0598,4.0629,4.0651,4.0677,4.0711,4.0743,4.0767,4.0778,4.0787,4.0775,4.079,4.0822,4.0828,4.0834,4.0833,4.0776,4.0776,4.0753,4.0753,4.0753]}]]